Ft Lauderdale, FL

4:05 AM EST on December 15, 2017 (GMT -0500)
Fort Lauderdale-Hollywood International

Weather History for KFLL - August, 2014

Change the Weather History Date:

Friday, August 8, 2014

  Actual Average Record
Temperature  
Mean Temperature 84 °F 85 °F  
Max Temperature 90 °F 91 °F 97 °F (1954)
Min Temperature 78 °F 79 °F 69 °F (1950)
Degree Days  
Heating Degree Days 0 0  
Month to date heating degree days 0 0  
Since 1 June heating degree days 0 0  
Since 1 July heating degree days 0 0  
Cooling Degree Days 19 20  
Month to date cooling degree days 155 160  
Year to date cooling degree days 2821 2719  
Since 1 June cooling degree days 1286 1301  
Growing Degree Days 34 (Base 50)    
Moisture  
Dew Point 74 °F    
Average Humidity 75    
Maximum Humidity 91    
Minimum Humidity 59    
Precipitation  
Precipitation 0.01 in 0.23 in 3.80 in (1928)
Month to date precipitation 2.39 1.73  
Year to date precipitation 40.81 35.36  
Snow  
Snow 0.00 in - - ()
Month to date snowfall 0.0  
Since 1 June snowfall 0.0  
Since 1 July snowfall 0.0  
Snow Depth 0.00 in    
Sea Level Pressure  
Sea Level Pressure 30.02 in    
Wind  
Wind Speed 6 mph (SE)    
Max Wind Speed 15 mph    
Max Gust Speed 19 mph    
Visibility 10 miles    
Events Rain    
T = Trace of Precipitation, MM = Missing Value Source: NWS Daily Summary

Daily Weather History Graph

Daily Weather History Graph

Search for Another Location

Airport or City:

Trip Planner

Search our weather history database for the weather conditions in past years. The results will help you decide how hot, cold, wet, or windy it might be!

Date:

Astronomy

Aug. 08, 2014 Rise Set
Actual Time 6:49 AM EDT 8:02 PM EDT
Civil Twilight 6:25 AM EDT 8:26 PM EDT
Nautical Twilight 5:56 AM EDT 8:55 PM EDT
Astronomical Twilight 5:26 AM EDT 9:25 PM EDT
Moon 6:10 PM EDT (8/8) 4:24 AM EDT (8/8)
Length of Visible Light 14h 01m
Length of Day
13h 12m
Waxing Gibbous, 93% of the Moon is Illuminated
Aug 8
Waxing Gibbous
Aug 10
Full
Aug 17
Last Quarter
Aug 25
New
Sep 2
First Quarter

Hourly Weather History & Observations

Time (EDT) Temp. Heat Index Dew Point Humidity Pressure Visibility Wind Dir Wind Speed Gust Speed Precip Events Conditions
12:53 AM 79.0 °F - 73.9 °F 84% 30.00 in 10.0 mi SW 4.6 mph - 0.01 in Rain Light Rain
1:53 AM 79.0 °F - 75.0 °F 88% 29.98 in 10.0 mi NNE 3.5 mph - 0.00 in   Partly Cloudy
2:53 AM 78.1 °F - 75.0 °F 90% 29.99 in 10.0 mi NNW 4.6 mph - 0.00 in   Mostly Cloudy
3:53 AM 79.0 °F - 75.0 °F 88% 29.99 in 10.0 mi Calm Calm - 0.00 in   Scattered Clouds
4:53 AM 79.0 °F - 73.9 °F 84% 29.99 in 10.0 mi NW 5.8 mph - 0.01 in   Partly Cloudy
5:53 AM 78.1 °F - 72.0 °F 81% 30.00 in 10.0 mi Calm Calm - N/A   Mostly Cloudy
6:53 AM 79.0 °F - 73.9 °F 84% 30.01 in 10.0 mi SE 9.2 mph - N/A   Mostly Cloudy
7:53 AM 80.1 °F 84.5 °F 73.9 °F 81% 30.04 in 10.0 mi SSE 4.6 mph - N/A   Mostly Cloudy
8:53 AM 82.0 °F 87.4 °F 73.0 °F 74% 30.03 in 10.0 mi ESE 4.6 mph - N/A   Mostly Cloudy
9:53 AM 84.0 °F 91.9 °F 75.0 °F 74% 30.03 in 10.0 mi Variable 3.5 mph - N/A   Mostly Cloudy
10:53 AM 89.1 °F 97.0 °F 73.0 °F 59% 30.04 in 10.0 mi Calm Calm - N/A   Mostly Cloudy
11:53 AM 89.1 °F 98.0 °F 73.9 °F 61% 30.06 in 10.0 mi ESE 5.8 mph - N/A   Mostly Cloudy
12:53 PM 88.0 °F 96.5 °F 73.9 °F 63% 30.06 in 10.0 mi SE 11.5 mph - N/A   Mostly Cloudy
1:53 PM 87.1 °F 96.3 °F 75.0 °F 67% 30.05 in 10.0 mi SE 11.5 mph - N/A   Scattered Clouds
2:53 PM 88.0 °F 97.5 °F 75.0 °F 65% 30.01 in 10.0 mi SE 10.4 mph - N/A   Scattered Clouds
3:53 PM 90.0 °F 100.2 °F 75.0 °F 61% 29.99 in 10.0 mi SE 11.5 mph - N/A   Mostly Cloudy
4:53 PM 89.1 °F 99.1 °F 75.0 °F 63% 29.99 in 10.0 mi SE 10.4 mph - N/A   Mostly Cloudy
5:53 PM 88.0 °F 96.5 °F 73.9 °F 63% 30.00 in 10.0 mi SE 11.5 mph - N/A   Mostly Cloudy
6:53 PM 87.1 °F 95.4 °F 73.9 °F 65% 30.01 in 10.0 mi SSE 10.4 mph - N/A   Mostly Cloudy
7:53 PM 86.0 °F 93.8 °F 73.9 °F 67% 30.02 in 10.0 mi SSE 9.2 mph - N/A   Mostly Cloudy
8:53 PM 86.0 °F 95.1 °F 75.0 °F 70% 30.03 in 10.0 mi SSE 8.1 mph - N/A   Mostly Cloudy
9:53 PM 86.0 °F 93.8 °F 73.9 °F 67% 30.04 in 10.0 mi SSE 6.9 mph - N/A   Mostly Cloudy
10:53 PM 84.9 °F 93.3 °F 75.0 °F 72% 30.06 in 10.0 mi Calm Calm - N/A   Mostly Cloudy
11:53 PM 84.9 °F 92.1 °F 73.9 °F 69% 30.06 in 10.0 mi SSW 3.5 mph - N/A   Clear